Location: Moscow
(41.5750°N, 91.0826°W)
Time: 19:58:57
(UTC+00:00)

Daily predictions for brighter satellites

Satellite Brightness Start Highest point End
(mag) Time Altitude Azimuth Time Altitude Azimuth Time Altitude Azimuth
Sich 1 Rocket 3.9 12:03:23 10° NNW 12:07:43 47° W 12:11:59 10° SSW
Cosmos 968 Rocket 4.3 12:03:22 10° NW 12:07:51 29° W 12:12:19 10° SSW
Iridium 45 4.3 12:05:53 10° N 12:09:05 85° E 12:12:20 10° S
CENTAUR R/B 3.7 12:01:13 10° NW 12:09:31 51° WSW 12:18:31 10° S
ATLAS 3B R/B 3.7 12:03:56 10° W 12:10:36 32° NW 12:17:30 10° NNE
SMAP 4.0 12:06:11 10° NNE 12:10:45 54° E 12:15:18 10° S
Helios 1A Rocket 3.6 12:08:33 10° SSW 12:11:16 23° W 12:14:01 10° NW
DMSP B5D1-3 4.5 12:07:25 10° S 12:12:30 79° WSW 12:17:39 10° NNW
Cosmos 1484 Rocket 2.7 12:09:51 10° N 12:13:14 46° WNW 12:16:35 10° SSW
CZ-2D R/B 4.4 12:10:37 10° NNE 12:13:36 38° E 12:16:35 10° S
COSMO-SKYMED 1 3.2 12:10:47 10° SSW 12:14:27 32° W 12:18:10 10° NNW
NOSS 2-2 (C) 4.1 12:11:00 10° NW 12:15:11 53° WSW 12:21:00 10° SSE
Cosmos 2228 4.0 12:14:58 10° N 12:19:07 49° E 12:23:13 10° SSE
Cosmos 292 Rocket 3.8 12:15:10 10° NNW 12:19:54 65° WSW 12:24:36 10° S
SL-8 R/B 3.8 12:17:50 10° SW 12:22:36 80° SSE 12:27:22 10° ENE
CZ-3 R/B 3.3 12:13:00 10° WSW 12:22:37 28° SSW 12:27:07 10° SE
Gbstr 26 Del rocket 4.1 12:18:18 10° NW 12:23:41 64° NNE 12:30:18 10° ESE
IGS 5A 3.4 12:21:16 10° N 12:25:09 55° WNW 12:29:02 10° SSW
SL-16 R/B 3.9 12:25:46 10° WNW 12:28:08 12° NW 12:30:29 10° NNW
USA 234 3.5 12:25:28 10° SE 12:31:58 64° SW 12:38:29 10° NW
Cosmos 407 Rocket 3.5 23:03:55 10° S 23:09:01 62° ESE 23:14:06 10° NNE
SJ 16-02 2.8 23:06:52 10° SE 23:09:51 19° E 23:12:51 10° NE
IGS 5A 3.3 23:06:25 10° SSE 23:10:23 79° ENE 23:14:22 10° N
CBERS-1 4.3 23:08:00 10° S 23:13:06 79° WSW 23:18:14 10° NNW
SMAP 3.2 23:09:17 10° SSE 23:13:49 55° ENE 23:18:22 10° N
YAOGAN 1 4.3 23:12:58 10° E 23:14:30 12° ENE 23:16:03 10° NE
Cosmos 44 Rocket 3.3 23:11:14 10° SSW 23:15:55 66° ESE 23:20:46 10° NE
OAO 2 Rocket 4.4 23:12:31 10° WSW 23:17:09 39° S 23:21:51 10° ESE
USA 215 3.4 23:11:34 10° ESE 23:17:54 55° NNE 23:24:14 10° NW
BREEZE-M DEB (TANK) 2.2 23:16:01 10° WSW 23:18:12 86° NNW 23:22:51 10° ENE
Cosmos 1833 Rocket 3.3 23:13:20 10° NNW 23:18:55 64° WSW 23:24:27 10° S
RESURS DK-1 2.6 23:17:35 10° NNW 23:21:26 44° ENE 23:25:15 10° SE
Meteor 1-28 Rocket 4.2 23:18:31 10° N 23:21:44 42° WNW 23:24:55 10° SW
SAR-Lupe-3 4.3 23:19:40 10° NNE 23:22:09 36° E 23:24:37 10° S
SL-12 R/B(2) 4.3 23:15:27 10° SSW 23:23:11 87° ESE 23:32:39 10° NE
Cosmos 540 Rocket 3.6 23:20:27 10° N 23:25:27 51° ENE 23:30:24 10° SE
Landsat 7 3.9 23:21:23 10° SSE 23:25:53 53° ENE 23:30:25 10° N
Cosmos 1400 Rocket 4.0 23:23:34 10° SE 23:26:24 20° E 23:29:15 10° NE
SPOT 1/Viking Rocket 4.4 23:22:35 10° ESE 23:26:50 26° ENE 23:31:06 10° N
SJ-12 3.8 23:25:41 10° SSE 23:29:22 52° ENE 23:33:04 10° N
Helios 1A Rocket 4.1 23:31:25 13° ENE 23:32:30 15° E 23:34:33 10° SE
Cosmos 1763 Rocket 3.4 23:29:34 10° NNW 23:34:46 74° ENE 23:39:53 10° SSE
Cosmos 304 Rocket 4.5 23:35:30 10° SSE 23:39:41 32° ESE 23:43:44 11° NE
UNK 4.3 23:35:29 10° N 23:40:02 61° WNW 23:44:33 10° SSW
Cosmos 1536 Rocket 4.3 23:38:05 10° NNE 23:42:02 31° ENE 23:45:57 10° SE
Cosmos 371 Rocket 4.0 23:37:49 10° SSE 23:42:05 33° ESE 23:46:07 11° NE
Okean 2 Rocket 3.7 23:40:22 10° SSE 23:44:15 32° E 23:48:09 10° NNE
Timation 1 Rocket 4.3 23:47:28 10° NNW 23:53:28 88° ENE 23:59:26 10° SSE
SL-16 R/B 4.2 23:49:00 10° N 23:54:29 33° WNW 23:59:55 10° SW
COSMO-SKYMED 1 3.1 23:52:15 14° NE 23:55:15 33° E 23:58:59 10° SSE
Cosmos 1602 3.0 23:52:50 10° N 23:55:52 62° E 23:58:53 10° SSE
